This demonstration page uses our WeatherBlox Daily Observations layout. Learn more.

Left ArrowRight Arrow

Hourly Observations for March 6, 2020

Temp ( °F °C ) Dew Point ( °F °C ) Humidity (%) Winds ( mph kmh ) Pressure ( in mb ) Visibility ( mi km ) Precip ( " mm )
12:53 am 00:53 Clear 50 10 43 6.1 77 77 N 3 6 29.98 1015 10 16 0.00 0.00
1:53 am 01:53 Clear 48 8.9 41 5 77 77 Calm 29.98 1015 10 16 0.00 0.00
2:53 am 02:53 Clear 49 9.4 42 5.6 77 77 NNE 3 6 29.97 1015 10 16 0.00 0.00
3:53 am 03:53 Clear 47 8.3 41 5 80 80 Calm 29.96 1015 10 16 0.00 0.00
4:53 am 04:53 Clear 47 8.3 40 4.4 77 77 Calm 29.96 1015 10 16 0.00 0.00
5:53 am 05:53 Clear 45 7.2 41 5 86 86 Calm 29.96 1015 10 16 0.00 0.00
6:53 am 06:53 Sunny 44 6.7 40 4.4 85 85 Calm 29.97 1015 10 16 0.00 0.00
7:53 am 07:53 Sunny 50 10 43 6.1 77 77 Calm 29.98 1015 10 16 0.00 0.00
8:53 am 08:53 Sunny 53 11.7 44 6.7 72 72 Calm 29.98 1015 9 14 0.00 0.00
9:53 am 09:53 Mostly Cloudy 54 12.2 46 7.8 75 75 S 5 7 29.98 1015 10 16 0.00 0.00
10:53 am 10:53 Sunny 57 13.9 46 7.8 67 67 S 6 9 29.96 1015 10 16 0.00 0.00
11:53 am 11:53 Mostly Cloudy 59 15 46 7.8 62 62 Calm 29.94 1014 10 16 0.00 0.00
12:53 pm 12:53 Partly Cloudy 61 16.1 47 8.3 60 60 Calm 29.91 1013 10 16 0.00 0.00
1:53 pm 13:53 Mostly Cloudy 61 16.1 47 8.3 60 60 SSW 9 15 29.87 1012 10 16 0.00 0.00
2:53 pm 14:53 Mostly Cloudy 62 16.7 46 7.8 56 56 SSW 10 17 29.85 1011 10 16 0.00 0.00
3:53 pm 15:53 Mostly Sunny 61 16.1 45 7.2 56 56 SSW 9 15 29.84 1010 10 16 0.00 0.00
4:53 pm 16:53 Sunny 60 15.6 45 7.2 58 58 SSW 8 13 29.82 1010 10 16 0.00 0.00
5:53 pm 17:53 Sunny 60 15.6 45 7.2 58 58 SSW 7 11 29.81 1009 10 16 0.00 0.00
6:53 pm 18:53 Mostly Cloudy 60 15.6 45 7.2 58 58 SW 7 11 29.82 1010 10 16 0.00 0.00
7:53 pm 19:53 Cloudy 59 15 45 7.2 60 60 SSW 5 7 29.81 1010 10 16 0.00 0.00
8:53 pm 20:53 Cloudy 58 14.4 45 7.2 62 62 ESE 3 6 29.81 1010 10 16 0.00 0.00
9:53 pm 21:53 Cloudy 57 13.9 45 7.2 64 64 SSE 7 11 29.81 1010 10 16 0.00 0.00
10:53 pm 22:53 Cloudy 56 13.3 45 7.2 67 67 S 14 22 29.80 1009 10 16 0.00 0.00
11:53 pm 23:53 Partly Cloudy 55 12.8 44 6.7 67 67 S 12 19 29.79 1009 10 16 0.00 0.00

Powered by AerisWeather